SWA332 KSMF-KSAN

Flight info

Callsign SWA332
Flight time 1h 9m
Altitude 39000
Route FTHIL3 FRA EHF HUULK COMIX2
Aircraft B737/M-SADE2E3GIJ4RWZ/LB1D1

Departure

Time 2026-04-20 15:48
Airport Sacramento International Airport (KSMF)

Arrival

Time 2026-04-20 16:58
Airport San Diego International Airport (KSAN)
Time Latitude Longitude Altitude Speed Heading
2026-04-20 14:54 38.69592 -121.59535 23 ft 0 kts 130°
2026-04-20 15:35 38.69592 -121.59536 23 ft 1 kts 130°
2026-04-20 15:35 38.69607 -121.59558 22 ft 4 kts 124°
2026-04-20 15:35 38.69614 -121.59583 22 ft 4 kts 56°
2026-04-20 15:35 38.69595 -121.59596 22 ft 4 kts
2026-04-20 15:36 38.69568 -121.59598 24 ft 3 kts
2026-04-20 15:36 38.69564 -121.59599 22 ft 0 kts
2026-04-20 15:38 38.69577 -121.59598 24 ft 5 kts 360°
2026-04-20 15:39 38.69645 -121.59598 23 ft 13 kts
2026-04-20 15:39 38.69698 -121.59527 22 ft 13 kts 86°
2026-04-20 15:39 38.69698 -121.59416 22 ft 12 kts 90°
2026-04-20 15:39 38.69697 -121.59306 24 ft 12 kts 91°
2026-04-20 15:40 38.69695 -121.59201 22 ft 12 kts 91°
2026-04-20 15:40 38.69694 -121.59097 24 ft 11 kts 90°
2026-04-20 15:40 38.69694 -121.58996 23 ft 11 kts 90°
2026-04-20 15:40 38.69692 -121.58898 25 ft 11 kts 91°
2026-04-20 15:41 38.69691 -121.58803 25 ft 11 kts 91°
2026-04-20 15:41 38.69690 -121.58710 25 ft 10 kts 91°
2026-04-20 15:41 38.69700 -121.58624 22 ft 10 kts 50°
2026-04-20 15:41 38.69757 -121.58583 22 ft 10 kts 61°
2026-04-20 15:42 38.69762 -121.58526 24 ft 10 kts 91°
2026-04-20 15:42 38.69761 -121.58443 22 ft 9 kts 90°
2026-04-20 15:42 38.69760 -121.58361 24 ft 10 kts 90°
2026-04-20 15:42 38.69789 -121.58285 23 ft 11 kts 15°
2026-04-20 15:43 38.69876 -121.58282 23 ft 14 kts
2026-04-20 15:43 38.69970 -121.58280 24 ft 13 kts
2026-04-20 15:43 38.70061 -121.58279 23 ft 13 kts
2026-04-20 15:43 38.70149 -121.58277 22 ft 13 kts
2026-04-20 15:44 38.70236 -121.58276 24 ft 12 kts
2026-04-20 15:44 38.70332 -121.58274 24 ft 16 kts
2026-04-20 15:44 38.70456 -121.58268 22 ft 20 kts 359°
2026-04-20 15:44 38.70598 -121.58269 25 ft 21 kts
2026-04-20 15:45 38.70662 -121.58264 24 ft 8 kts 11°
2026-04-20 15:45 38.70696 -121.58213 23 ft 8 kts 68°
2026-04-20 15:45 38.70700 -121.58150 22 ft 5 kts 90°
2026-04-20 15:45 38.70700 -121.58138 24 ft 0 kts 90°
2026-04-20 15:47 38.70700 -121.58122 24 ft 7 kts 90°
2026-04-20 15:47 38.70679 -121.58029 24 ft 13 kts 130°
2026-04-20 15:47 38.70625 -121.58005 24 ft 5 kts 178°
2026-04-20 15:47 38.70484 -121.58008 23 ft 55 kts 181°
2026-04-20 15:48 38.69784 -121.58021 24 ft 142 kts 180°
2026-04-20 15:48 38.68653 -121.58012 562 ft 171 kts 178°
2026-04-20 15:48 38.67434 -121.57818 1427 ft 185 kts 158°
2026-04-20 15:48 38.66394 -121.56680 1806 ft 213 kts 124°
2026-04-20 15:49 38.65579 -121.54955 2188 ft 240 kts 121°
2026-04-20 15:49 38.64717 -121.53096 2772 ft 257 kts 122°
2026-04-20 15:49 38.63782 -121.51134 3835 ft 260 kts 123°
2026-04-20 15:49 38.62827 -121.49182 4976 ft 260 kts 123°
2026-04-20 15:50 38.61863 -121.47246 6079 ft 262 kts 125°
2026-04-20 15:50 38.60877 -121.45298 7174 ft 265 kts 125°
2026-04-20 15:50 38.59860 -121.43306 8315 ft 269 kts 126°
2026-04-20 15:50 38.58822 -121.41290 9459 ft 274 kts 126°
2026-04-20 15:51 38.57758 -121.39245 10532 ft 281 kts 127°
2026-04-20 15:51 38.56621 -121.37077 10987 ft 309 kts 128°
2026-04-20 15:51 38.55384 -121.34727 11672 ft 325 kts 128°
2026-04-20 15:51 38.54119 -121.32321 12717 ft 328 kts 129°
2026-04-20 15:52 38.52839 -121.29887 13783 ft 332 kts 130°
2026-04-20 15:52 38.51537 -121.27409 14742 ft 340 kts 130°
2026-04-20 15:52 38.50203 -121.24887 15719 ft 346 kts 130°
2026-04-20 15:53 38.47460 -121.19700 17599 ft 359 kts 131°
2026-04-20 15:53 38.46050 -121.17037 18492 ft 365 kts 131°
2026-04-20 15:53 38.44619 -121.14336 19369 ft 370 kts 131°
2026-04-20 15:53 38.43162 -121.11590 20188 ft 377 kts 131°
2026-04-20 15:54 38.41681 -121.08803 20972 ft 384 kts 131°
2026-04-20 15:54 38.40165 -121.05950 21724 ft 390 kts 131°
2026-04-20 15:54 38.38634 -121.03070 22472 ft 396 kts 131°
2026-04-20 15:54 38.37079 -121.00148 23202 ft 401 kts 131°
2026-04-20 15:55 38.35502 -120.97189 23878 ft 407 kts 131°
2026-04-20 15:55 38.33898 -120.94182 24527 ft 412 kts 131°
2026-04-20 15:55 38.32277 -120.91146 25157 ft 418 kts 131°
2026-04-20 15:55 38.30633 -120.88069 25776 ft 423 kts 131°
2026-04-20 15:56 38.28962 -120.84943 26346 ft 429 kts 131°
2026-04-20 15:56 38.27298 -120.81832 26864 ft 435 kts 131°
2026-04-20 15:56 38.25582 -120.78628 27359 ft 441 kts 131°
2026-04-20 15:56 38.23846 -120.75391 27928 ft 445 kts 131°
2026-04-20 15:57 38.22088 -120.72114 28420 ft 449 kts 131°
2026-04-20 15:57 38.20317 -120.68818 28900 ft 454 kts 130°
2026-04-20 15:57 38.18528 -120.65490 29367 ft 458 kts 130°
2026-04-20 15:57 38.16716 -120.62124 29817 ft 463 kts 130°
2026-04-20 15:58 38.14893 -120.58742 30278 ft 466 kts 130°
2026-04-20 15:58 38.13088 -120.55395 30705 ft 470 kts 130°
2026-04-20 15:58 38.11230 -120.51951 31128 ft 473 kts 130°
2026-04-20 15:58 38.09369 -120.48504 31628 ft 474 kts 130°
2026-04-20 15:59 38.07505 -120.45056 32172 ft 473 kts 130°
2026-04-20 15:59 38.05642 -120.41619 32689 ft 473 kts 130°
2026-04-20 15:59 38.03757 -120.38198 33184 ft 473 kts 130°
2026-04-20 15:59 38.01856 -120.34790 33596 ft 474 kts 131°
2026-04-20 16:00 37.99944 -120.31374 33970 ft 476 kts 130°
2026-04-20 16:00 37.98034 -120.27949 34410 ft 476 kts 130°
2026-04-20 16:00 37.96127 -120.24527 34898 ft 474 kts 130°
2026-04-20 16:00 37.94037 -120.21371 35367 ft 462 kts 145°
2026-04-20 16:01 37.91437 -120.19095 35873 ft 450 kts 155°
2026-04-20 16:01 37.88739 -120.17099 36296 ft 449 kts 155°
2026-04-20 16:01 37.86026 -120.15139 36628 ft 449 kts 156°
2026-04-20 16:01 37.83316 -120.13182 37076 ft 447 kts 155°
2026-04-20 16:02 37.80648 -120.11237 37681 ft 440 kts 155°
2026-04-20 16:02 37.78086 -120.09352 38234 ft 434 kts 155°
2026-04-20 16:02 37.75478 -120.07425 38528 ft 435 kts 155°
2026-04-20 16:02 37.72967 -120.05566 38730 ft 437 kts 155°
2026-04-20 16:03 37.70340 -120.03618 38989 ft 438 kts 154°
2026-04-20 16:03 37.67702 -120.01660 39013 ft 441 kts 154°
2026-04-20 16:03 37.62419 -119.97740 39017 ft 439 kts 154°
2026-04-20 16:04 37.57171 -119.93852 39030 ft 437 kts 154°
2026-04-20 16:04 37.51941 -119.89986 39036 ft 436 kts 154°
2026-04-20 16:05 37.46710 -119.86126 39039 ft 435 kts 154°
2026-04-20 16:05 37.41490 -119.82280 39038 ft 435 kts 154°
2026-04-20 16:06 37.36252 -119.78429 39050 ft 436 kts 154°
2026-04-20 16:06 37.31005 -119.74575 39049 ft 437 kts 154°
2026-04-20 16:07 37.25742 -119.70717 39050 ft 439 kts 154°
2026-04-20 16:07 37.20581 -119.66938 39040 ft 440 kts 154°
2026-04-20 16:08 37.15290 -119.63071 39037 ft 441 kts 154°
2026-04-20 16:08 37.09962 -119.59316 39016 ft 438 kts 162°
2026-04-20 16:09 37.04143 -119.57380 39031 ft 433 kts 171°
2026-04-20 16:09 36.98281 -119.55641 39031 ft 434 kts 170°
2026-04-20 16:10 36.92509 -119.53885 39029 ft 435 kts 170°
2026-04-20 16:10 36.86634 -119.52059 39030 ft 435 kts 169°
2026-04-20 16:11 36.80744 -119.50223 39024 ft 436 kts 169°
2026-04-20 16:11 36.74859 -119.48390 39011 ft 436 kts 169°
2026-04-20 16:12 36.68972 -119.46557 39012 ft 436 kts 169°
2026-04-20 16:12 36.63089 -119.44730 39003 ft 436 kts 169°
2026-04-20 16:13 36.57199 -119.42904 39005 ft 436 kts 169°
2026-04-20 16:13 36.51314 -119.41081 39020 ft 436 kts 169°
2026-04-20 16:14 36.45429 -119.39262 39031 ft 436 kts 169°
2026-04-20 16:14 36.39549 -119.37448 39038 ft 435 kts 169°
2026-04-20 16:15 36.33668 -119.35636 39048 ft 435 kts 169°
2026-04-20 16:15 36.27794 -119.33829 39047 ft 436 kts 169°
2026-04-20 16:16 36.21907 -119.32020 39045 ft 436 kts 169°
2026-04-20 16:16 36.16022 -119.30217 39046 ft 436 kts 169°
2026-04-20 16:17 36.10135 -119.28413 39047 ft 436 kts 169°
2026-04-20 16:17 36.04246 -119.26613 39046 ft 436 kts 169°
2026-04-20 16:18 35.98358 -119.24815 39045 ft 436 kts 169°
2026-04-20 16:18 35.92496 -119.23027 39048 ft 437 kts 169°
2026-04-20 16:19 35.86593 -119.21230 39037 ft 437 kts 169°
2026-04-20 16:19 35.80677 -119.19433 39034 ft 438 kts 169°
2026-04-20 16:20 35.74762 -119.17638 39029 ft 438 kts 169°
2026-04-20 16:20 35.68856 -119.15846 39026 ft 439 kts 169°
2026-04-20 16:21 35.62910 -119.14048 39027 ft 439 kts 169°
2026-04-20 16:21 35.56965 -119.12253 39029 ft 439 kts 169°
2026-04-20 16:22 35.51038 -119.10465 39030 ft 439 kts 169°
2026-04-20 16:22 35.45228 -119.08082 39043 ft 443 kts 158°
2026-04-20 16:23 35.39614 -119.04883 39028 ft 444 kts 157°
2026-04-20 16:23 35.34021 -119.01660 39028 ft 444 kts 158°
2026-04-20 16:24 35.28440 -118.98516 39030 ft 444 kts 158°
2026-04-20 16:24 35.22810 -118.95383 39040 ft 445 kts 158°
2026-04-20 16:25 35.17172 -118.92259 39047 ft 444 kts 158°
2026-04-20 16:25 35.11541 -118.89140 39055 ft 444 kts 158°
2026-04-20 16:26 35.05911 -118.86024 39078 ft 444 kts 158°
2026-04-20 16:26 35.00275 -118.82910 39090 ft 445 kts 158°
2026-04-20 16:27 34.94642 -118.79802 39104 ft 445 kts 158°
2026-04-20 16:27 34.88991 -118.76690 39108 ft 446 kts 158°
2026-04-20 16:28 34.83334 -118.73579 39108 ft 446 kts 158°
2026-04-20 16:28 34.77669 -118.70470 39116 ft 447 kts 158°
2026-04-20 16:29 34.72964 -118.67888 39120 ft 447 kts 158°
2026-04-20 16:29 34.67304 -118.64788 39129 ft 447 kts 158°
2026-04-20 16:30 34.60698 -118.61174 39111 ft 448 kts 158°
2026-04-20 16:30 34.56021 -118.58362 39113 ft 449 kts 152°
2026-04-20 16:31 34.50658 -118.54474 39100 ft 450 kts 150°
2026-04-20 16:31 34.45316 -118.50528 39101 ft 449 kts 150°
2026-04-20 16:32 34.39942 -118.46645 39099 ft 449 kts 151°
2026-04-20 16:32 34.34615 -118.42856 39097 ft 450 kts 151°
2026-04-20 16:33 34.29215 -118.39033 39090 ft 450 kts 151°
2026-04-20 16:33 34.23811 -118.35209 39098 ft 450 kts 151°
2026-04-20 16:34 34.18450 -118.31417 39088 ft 450 kts 151°
2026-04-20 16:34 34.13047 -118.27601 39082 ft 450 kts 151°
2026-04-20 16:35 34.07646 -118.23790 39086 ft 450 kts 151°
2026-04-20 16:35 34.02241 -118.19985 39090 ft 450 kts 151°
2026-04-20 16:36 33.96834 -118.16186 39093 ft 450 kts 151°
2026-04-20 16:36 33.94111 -118.14272 38761 ft 455 kts 151°
2026-04-20 16:36 33.91377 -118.12353 38191 ft 454 kts 151°
2026-04-20 16:37 33.88655 -118.10443 37530 ft 453 kts 151°
2026-04-20 16:37 33.85932 -118.08535 36848 ft 452 kts 151°
2026-04-20 16:37 33.83214 -118.06649 36131 ft 451 kts 152°
2026-04-20 16:37 33.80473 -118.04813 35317 ft 453 kts 153°
2026-04-20 16:38 33.77709 -118.02996 34468 ft 454 kts 153°
2026-04-20 16:38 33.74923 -118.01173 33571 ft 457 kts 153°
2026-04-20 16:38 33.72161 -117.99363 32651 ft 459 kts 153°
2026-04-20 16:38 33.69319 -117.97492 31773 ft 459 kts 153°
2026-04-20 16:39 33.66567 -117.95675 31106 ft 454 kts 153°
2026-04-20 16:39 33.63775 -117.93830 30408 ft 450 kts 154°
2026-04-20 16:39 33.61049 -117.92030 29725 ft 446 kts 154°
2026-04-20 16:39 33.58349 -117.90250 29029 ft 441 kts 154°
2026-04-20 16:40 33.55676 -117.88488 28326 ft 436 kts 154°
2026-04-20 16:40 33.53039 -117.86735 27624 ft 432 kts 153°
2026-04-20 16:40 33.50474 -117.84984 26930 ft 428 kts 153°
2026-04-20 16:40 33.47874 -117.83201 26223 ft 423 kts 153°
2026-04-20 16:41 33.45365 -117.81486 25532 ft 419 kts 153°
2026-04-20 16:41 33.42902 -117.79579 24817 ft 417 kts 143°
2026-04-20 16:41 33.40737 -117.77333 24166 ft 413 kts 140°
2026-04-20 16:41 33.38642 -117.74996 23451 ft 410 kts 139°
2026-04-20 16:42 33.36566 -117.72668 22767 ft 406 kts 139°
2026-04-20 16:42 33.34499 -117.70388 22072 ft 402 kts 140°
2026-04-20 16:42 33.32436 -117.68154 21387 ft 398 kts 140°
2026-04-20 16:42 33.30388 -117.65960 20706 ft 394 kts 140°
2026-04-20 16:43 33.28354 -117.63794 20027 ft 390 kts 141°
2026-04-20 16:43 33.26338 -117.61650 19347 ft 386 kts 141°
2026-04-20 16:43 33.24346 -117.59534 18672 ft 381 kts 141°
2026-04-20 16:43 33.22369 -117.57448 17994 ft 377 kts 141°
2026-04-20 16:44 33.20410 -117.55389 17331 ft 373 kts 141°
2026-04-20 16:44 33.18469 -117.53348 16606 ft 370 kts 140°
2026-04-20 16:44 33.16542 -117.51327 15924 ft 366 kts 141°
2026-04-20 16:44 33.14640 -117.49335 15269 ft 362 kts 141°
2026-04-20 16:45 33.12734 -117.47425 14746 ft 353 kts 145°
2026-04-20 16:45 33.10753 -117.45775 14325 ft 342 kts 148°
2026-04-20 16:45 33.08801 -117.44212 13924 ft 336 kts 148°
2026-04-20 16:45 33.06879 -117.42648 13529 ft 333 kts 147°
2026-04-20 16:46 33.04972 -117.41072 13128 ft 332 kts 147°
2026-04-20 16:46 33.03080 -117.39496 12731 ft 331 kts 146°
2026-04-20 16:46 33.01197 -117.37919 12334 ft 329 kts 146°
2026-04-20 16:46 32.99354 -117.36370 11946 ft 327 kts 146°
2026-04-20 16:47 32.97503 -117.34814 11552 ft 322 kts 146°
2026-04-20 16:47 32.95708 -117.33309 11169 ft 313 kts 146°
2026-04-20 16:47 32.93960 -117.31844 10803 ft 304 kts 146°
2026-04-20 16:47 32.92249 -117.30412 10447 ft 297 kts 146°
2026-04-20 16:48 32.90579 -117.29018 10095 ft 290 kts 146°
2026-04-20 16:48 32.88950 -117.27664 9915 ft 278 kts 146°
2026-04-20 16:48 32.87370 -117.26351 9475 ft 277 kts 146°
2026-04-20 16:48 32.85803 -117.25048 9140 ft 273 kts 146°
2026-04-20 16:49 32.84260 -117.23768 8798 ft 269 kts 146°
2026-04-20 16:49 32.82737 -117.22506 8481 ft 265 kts 146°
2026-04-20 16:49 32.81391 -117.21041 8138 ft 263 kts 124°
2026-04-20 16:49 32.80634 -117.19080 7854 ft 260 kts 108°
2026-04-20 16:50 32.80170 -117.17033 7547 ft 257 kts 105°
2026-04-20 16:50 32.79752 -117.14995 7251 ft 254 kts 105°
2026-04-20 16:50 32.79322 -117.12964 6941 ft 252 kts 105°
2026-04-20 16:50 32.78886 -117.10964 6651 ft 249 kts 106°
2026-04-20 16:51 32.78447 -117.08979 6353 ft 247 kts 106°
2026-04-20 16:51 32.78015 -117.07037 6143 ft 241 kts 106°
2026-04-20 16:51 32.77571 -117.05118 5879 ft 239 kts 107°
2026-04-20 16:51 32.77114 -117.03245 5678 ft 231 kts 107°
2026-04-20 16:52 32.76677 -117.01461 5481 ft 220 kts 107°
2026-04-20 16:52 32.76265 -116.99765 5283 ft 209 kts 107°
2026-04-20 16:52 32.75840 -116.98142 5084 ft 204 kts 115°
2026-04-20 16:52 32.74907 -116.96999 4860 ft 200 kts 158°
2026-04-20 16:53 32.73556 -116.96959 4620 ft 197 kts 198°
2026-04-20 16:53 32.72249 -116.97496 4115 ft 206 kts 199°
2026-04-20 16:53 32.71001 -116.98324 3744 ft 201 kts 223°
2026-04-20 16:53 32.70251 -116.99635 3552 ft 186 kts 247°
2026-04-20 16:54 32.69934 -117.01078 3350 ft 176 kts 262°
2026-04-20 16:54 32.69798 -117.02483 3105 ft 168 kts 263°
2026-04-20 16:54 32.69855 -117.03866 2862 ft 168 kts 279°
2026-04-20 16:54 32.70085 -117.05232 2603 ft 170 kts 283°
2026-04-20 16:55 32.70378 -117.06589 2338 ft 168 kts 284°
2026-04-20 16:55 32.70677 -117.07873 2079 ft 159 kts 285°
2026-04-20 16:55 32.70962 -117.09066 1866 ft 142 kts 285°
2026-04-20 16:55 32.71226 -117.10159 1642 ft 135 kts 285°
2026-04-20 16:56 32.71485 -117.11233 1433 ft 132 kts 285°
2026-04-20 16:56 32.71727 -117.12265 1249 ft 131 kts 285°
2026-04-20 16:56 32.71968 -117.13294 1049 ft 130 kts 286°
2026-04-20 16:56 32.72226 -117.14329 846 ft 130 kts 285°
2026-04-20 16:57 32.72478 -117.15359 644 ft 131 kts 287°
2026-04-20 16:57 32.72736 -117.16392 414 ft 129 kts 285°
2026-04-20 16:57 32.72978 -117.17394 222 ft 127 kts 287°
2026-04-20 16:57 32.73217 -117.18394 34 ft 125 kts 286°
2026-04-20 16:58 32.73421 -117.19233 22 ft 80 kts 286°
2026-04-20 16:58 32.73515 -117.19619 27 ft 18 kts 286°
2026-04-20 16:58 32.73534 -117.19749 29 ft 11 kts 258°
2026-04-20 16:58 32.73514 -117.19821 27 ft 8 kts 251°
2026-04-20 16:59 32.73500 -117.19870 25 ft 0 kts 251°
2026-04-20 16:59 32.73499 -117.19873 22 ft 1 kts 251°
2026-04-20 16:59 32.73498 -117.19876 24 ft 0 kts 251°
2026-04-20 16:59 32.73497 -117.19882 24 ft 1 kts 251°
2026-04-20 17:00 32.73471 -117.19869 22 ft 7 kts 111°
2026-04-20 17:00 32.73456 -117.19809 22 ft 8 kts 105°
2026-04-20 17:00 32.73442 -117.19747 22 ft 8 kts 105°
2026-04-20 17:01 32.73427 -117.19688 23 ft 7 kts 107°
2026-04-20 17:01 32.73413 -117.19631 22 ft 7 kts 106°
2026-04-20 17:01 32.73378 -117.19595 23 ft 7 kts 170°
2026-04-20 17:01 32.73340 -117.19604 22 ft 3 kts 197°
2026-04-20 17:02 32.73326 -117.19609 23 ft 1 kts 197°
2026-04-20 17:02 32.73323 -117.19610 22 ft 0 kts 196°